QPF
0.00 0.02 0.06 0.20 0.23 0.14 0.09 0.06 0.03 0.01 0.00 0.00 0.00 0.01 0.01 0.02 0.02 0.01 0.01 0.02 0.02 0.01 0.01 0.01 0.01 0.03 0.12 0.25 0.32 0.30 0.33 0.30 0.22 0.15 0.11 0.11 0.15 0.19 0.15 0.09 0.08 0.05 0.02 0.02
0.00 0.01 0.03 0.07 0.05 0.04 0.03 0.02 0.01 0.00 0.01 0.02 0.02 0.03 0.09 0.16 0.10 0.05 0.04 0.04 0.05 0.04 0.04 0.03 0.03 0.04 0.10 0.21 0.29 0.32 0.37 0.40 0.30 0.25 0.20 0.17 0.21 0.29 0.27 0.16 0.14 0.12 0.08 0.04
0.00 0.00 0.01 0.01 0.02 0.06 0.07 0.05 0.02 0.01 0.02 0.07 0.13 0.25 0.56 0.67 0.42 0.22 0.18 0.16 0.16 0.16 0.15 0.13 0.10 0.09 0.11 0.17 0.23 0.29 0.33 0.33 0.25 0.23 0.30 0.32 0.35 0.34 0.25 0.18 0.21 0.23 0.17 0.10
0.00 0.01 0.02 0.02 0.02 0.08 0.11 0.08 0.04 0.02 0.03 0.07 0.17 0.34 0.53 0.67 0.56 0.36 0.33 0.26 0.22 0.19 0.17 0.13 0.11 0.11 0.12 0.14 0.16 0.19 0.18 0.15 0.12 0.18 0.27 0.28 0.27 0.24 0.20 0.19 0.25 0.31 0.24 0.18
0.01 0.09 0.11 0.02 0.02 0.04 0.06 0.04 0.02 0.01 0.01 0.02 0.06 0.08 0.11 0.18 0.22 0.19 0.15 0.12 0.08 0.05 0.04 0.03 0.02 0.03 0.03 0.02 0.02 0.02 0.02 0.02 0.04 0.05 0.05 0.05 0.05 0.06 0.10 0.14 0.18 0.16 0.18 0.29
0.00 0.03 0.04 0.01 0.00 0.01 0.03 0.06 0.01 0.00 0.00 0.01 0.04 0.07 0.06 0.13 0.09 0.03 0.01 0.01 0.00 0.00 0.00 0.00 0.00 0.00 0.00 0.00 0.00 0.00 0.00 0.00 0.00 0.00 0.00 0.00 0.00 0.01 0.03 0.06 0.08 0.08 0.11 0.19
0.00 0.00 0.00 0.00 0.00 0.00 0.01 0.03 0.00 0.00 0.00 0.00 0.01 0.01 0.02 0.09 0.07 0.00 0.00 0.00 0.00 0.00 0.00 0.00 0.00 0.00 0.00 0.00 0.00 0.00 0.00 0.00 0.00 0.00 0.00 0.00 0.00 0.00 0.00 0.00 0.01 0.03 0.06 0.06
0.00 0.00 0.00 0.00 0.00 0.00 0.00 0.00 0.00 0.00 0.00 0.00 0.00 0.00 0.01 0.04 0.05 0.00 0.00 0.00 0.00 0.00 0.00 0.00 0.00 0.00 0.00 0.00 0.00 0.00 0.00 0.00 0.00 0.00 0.00 0.00 0.00 0.00 0.00 0.00 0.00 0.00 0.01 0.00
0.00 0.00 0.00 0.00 0.00 0.00 0.00 0.00 0.00 0.00 0.00 0.00 0.00 0.00 0.00 0.02 0.06 0.01 0.00 0.00 0.00 0.00 0.00 0.00 0.00 0.00 0.00 0.00 0.00 0.00 0.00 0.00 0.00 0.00 0.00 0.00 0.00 0.00 0.00 0.00 0.00 0.00 0.00 0.00
0.00 0.00 0.00 0.00 0.00 0.00 0.00 0.00 0.00 0.00 0.00 0.00 0.00 0.00 0.00 0.01 0.04 0.02 0.00 0.00 0.00 0.00 0.00 0.00 0.00 0.00 0.00 0.00 0.00 0.00 0.00 0.00 0.00 0.00 0.00 0.00 0.00 0.00 0.00 0.00 0.00 0.00 0.00 0.01
0.00 0.00 0.00 0.00 0.00 0.00 0.00 0.00 0.00 0.00 0.00 0.00 0.00 0.00 0.00 0.00 0.01 0.01 0.00 0.00 0.00 0.00 0.00 0.00 0.00 0.00 0.00 0.00 0.00 0.00 0.00 0.00 0.00 0.00 0.00 0.00 0.00 0.00 0.00 0.00 0.00 0.00 0.00 0.00
0.00 0.00 0.00 0.00 0.00 0.00 0.00 0.00 0.00 0.00 0.00 0.00 0.00 0.00 0.00 0.00 0.00 0.00 0.00 0.00 0.00 0.00 0.00 0.00 0.00 0.00 0.00 0.00 0.00 0.00 0.00 0.00 0.00 0.00 0.00 0.00 0.00 0.00 0.00 0.00 0.00 0.00 0.01 0.01
0.00 0.00 0.00 0.00 0.00 0.00 0.00 0.00 0.00 0.00 0.00 0.00 0.00 0.00 0.00 0.00 0.00 0.00 0.00 0.00 0.00 0.00 0.00 0.00 0.00 0.00 0.00 0.00 0.00 0.00 0.00 0.00 0.00 0.00 0.00 0.00 0.00 0.00 0.00 0.00 0.00 0.00 0.00 0.00
0.00 0.00 0.00 0.00 0.00 0.00 0.00 0.00 0.00 0.00 0.00 0.00 0.00 0.00 0.00 0.00 0.00 0.00 0.00 0.00 0.00 0.00 0.00 0.00 0.00 0.00 0.00 0.00 0.00 0.00 0.00 0.00 0.00 0.00 0.00 0.00 0.00 0.00 0.00 0.00 0.00 0.00 0.00 0.00
0.00 0.00 0.00 0.00 0.00 0.00 0.00 0.00 0.00 0.00 0.00 0.00 0.00 0.00 0.00 0.00 0.00 0.00 0.00 0.00 0.00 0.00 0.00 0.00 0.00 0.00 0.00 0.00 0.00 0.00 0.00 0.00 0.00 0.00 0.00 0.00 0.00 0.00 0.00 0.00 0.00 0.00 0.00 0.00
0.00 0.00 0.00 0.00 0.00 0.00 0.00 0.00 0.00 0.00 0.00 0.00 0.00 0.00 0.00 0.00 0.00 0.00 0.00 0.00 0.00 0.00 0.00 0.00 0.00 0.00 0.00 0.00 0.00 0.00 0.00 0.00 0.00 0.00 0.00 0.00 0.00 0.00 0.00 0.00 0.00 0.00 0.00 0.00
0.00 0.00 0.00 0.00 0.00 0.00 0.00 0.00 0.00 0.00 0.00 0.00 0.00 0.00 0.00 0.00 0.00 0.00 0.00 0.00 0.00 0.00 0.00 0.00 0.00 0.00 0.00 0.00 0.00 0.00 0.00 0.00 0.00 0.00 0.00 0.00 0.00 0.00 0.00 0.00 0.00 0.00 0.00 0.00
0.00 0.00 0.00 0.00 0.00 0.00 0.00 0.00 0.00 0.00 0.00 0.00 0.00 0.00 0.00 0.00 0.00 0.00 0.00 0.00 0.00 0.00 0.00 0.00 0.00 0.00 0.00 0.00 0.00 0.00 0.00 0.00 0.00 0.00 0.00 0.00 0.00 0.00 0.00 0.00 0.00 0.00 0.00 0.00
0.00 0.00 0.00 0.00 0.00 0.00 0.00 0.00 0.00 0.00 0.00 0.00 0.00 0.00 0.00 0.00 0.00 0.00 0.00 0.00 0.00 0.00 0.00 0.00 0.00 0.00 0.00 0.00 0.00 0.00 0.00 0.00 0.00 0.00 0.00 0.00 0.00 0.00 0.00 0.00 0.00 0.00 0.00 0.00
0.00 0.00 0.00 0.00 0.00 0.00 0.00 0.00 0.00 0.00 0.00 0.00 0.00 0.00 0.00 0.00 0.00 0.00 0.00 0.00 0.00 0.00 0.00 0.00 0.00 0.00 0.00 0.00 0.00 0.00 0.00 0.00 0.00 0.00 0.00 0.00 0.00 0.00 0.00 0.00 0.00 0.00 0.00 0.00
0.00 0.00 0.00 0.00 0.00 0.00 0.00 0.00 0.00 0.00 0.00 0.00 0.00 0.00 0.00 0.00 0.00 0.00 0.00 0.00 0.00 0.00 0.00 0.00 0.00 0.00 0.00 0.00 0.00 0.00 0.00 0.00 0.00 0.00 0.00 0.00 0.00 0.00 0.00 0.00 0.00 0.00 0.00 0.00
0.00 0.00 0.00 0.00 0.00 0.00 0.00 0.00 0.00 0.00 0.00 0.00 0.00 0.00 0.00 0.00 0.00 0.00 0.00 0.00 0.00 0.00 0.00 0.00 0.00 0.00 0.00 0.00 0.00 0.00 0.00 0.00 0.00 0.00 0.00 0.00 0.00 0.00 0.00 0.00 0.00 0.00 0.00 0.00
0.00 0.00 0.00 0.00 0.00 0.00 0.00 0.00 0.00 0.00 0.00 0.00 0.00 0.00 0.00 0.00 0.00 0.00 0.00 0.00 0.00 0.00 0.00 0.00 0.00 0.00 0.00 0.00 0.00 0.00 0.00 0.00 0.00 0.00 0.00 0.00 0.00 0.00 0.00 0.00 0.00 0.00 0.00 0.00
0.00 0.00 0.00 0.00 0.00 0.00 0.00 0.00 0.00 0.00 0.00 0.00 0.00 0.00 0.00 0.00 0.00 0.00 0.00 0.00 0.00 0.00 0.00 0.00 0.00 0.00 0.00 0.00 0.00 0.00 0.00 0.00 0.00 0.00 0.00 0.00 0.00 0.00 0.00 0.00 0.00 0.00 0.00 0.00
0.00 0.00 0.00 0.00 0.00 0.00 0.00 0.00 0.00 0.00 0.00 0.00 0.00 0.00 0.00 0.00 0.00 0.00 0.00 0.00 0.00 0.00 0.00 0.00 0.00 0.00 0.00 0.00 0.00 0.00 0.00 0.00 0.00 0.00 0.00 0.00 0.00 0.00 0.00 0.00 0.00 0.00 0.00 0.00
0.00 0.00 0.00 0.00 0.00 0.00 0.00 0.00 0.00 0.00 0.00 0.00 0.00 0.00 0.00 0.00 0.00 0.00 0.00 0.00 0.00 0.00 0.00 0.00 0.00 0.00 0.00 0.00 0.00 0.00 0.00 0.00 0.00 0.00 0.00 0.00 0.00 0.00 0.00 0.00 0.00 0.00 0.00 0.00
0.00 0.00 0.00 0.00 0.00 0.00 0.00 0.00 0.00 0.00 0.00 0.00 0.00 0.00 0.00 0.00 0.00 0.00 0.00 0.00 0.00 0.00 0.00 0.00 0.00 0.00 0.00 0.00 0.00 0.00 0.00 0.00 0.00 0.00 0.00 0.00 0.00 0.00 0.00 0.00 0.00 0.00 0.00 0.00
MSLP
1019.58 1019.51 1019.44 1019.40 1019.39 1019.38 1019.37 1019.31 1019.17 1018.92 1018.54 1018.02 1017.35 1016.56 1015.67 1014.74 1013.79 1012.87 1012.03 1011.28 1010.66 1010.16 1009.80 1009.55 1009.41 1009.37 1009.39 1009.47 1009.58 1009.73 1009.88 1010.03 1010.18 1010.32 1010.44 1010.54 1010.62 1010.68 1010.73 1010.78 1010.83 1010.90 1010.98 1011.10
1020.08 1020.09 1020.10 1020.10 1020.09 1020.07 1020.02 1019.91 1019.71 1019.40 1018.97 1018.40 1017.71 1016.91 1016.02 1015.09 1014.16 1013.26 1012.44 1011.71 1011.11 1010.64 1010.30 1010.08 1009.97 1009.94 1009.97 1010.05 1010.15 1010.25 1010.35 1010.44 1010.52 1010.57 1010.61 1010.64 1010.65 1010.64 1010.63 1010.63 1010.62 1010.64 1010.69 1010.77
1020.66 1020.74 1020.79 1020.83 1020.84 1020.81 1020.72 1020.56 1020.30 1019.94 1019.45 1018.85 1018.12 1017.31 1016.43 1015.52 1014.61 1013.74 1012.96 1012.28 1011.72 1011.30 1011.00 1010.82 1010.73 1010.72 1010.75 1010.81 1010.87 1010.92 1010.96 1010.97 1010.96 1010.93 1010.89 1010.84 1010.78 1010.72 1010.65 1010.59 1010.55 1010.52 1010.52 1010.56
1021.30 1021.41 1021.50 1021.55 1021.56 1021.51 1021.39 1021.18 1020.86 1020.44 1019.91 1019.26 1018.52 1017.69 1016.83 1015.94 1015.07 1014.26 1013.53 1012.91 1012.42 1012.05 1011.81 1011.66 1011.60 1011.60 1011.62 1011.65 1011.66 1011.65 1011.62 1011.55 1011.46 1011.35 1011.24 1011.13 1011.02 1010.91 1010.81 1010.72 1010.63 1010.57 1010.53 1010.52
1021.95 1022.06 1022.14 1022.18 1022.17 1022.08 1021.92 1021.66 1021.29 1020.82 1020.24 1019.56 1018.80 1017.98 1017.13 1016.29 1015.48 1014.73 1014.07 1013.52 1013.10 1012.79 1012.60 1012.49 1012.45 1012.45 1012.46 1012.45 1012.42 1012.35 1012.24 1012.11 1011.95 1011.79 1011.62 1011.47 1011.33 1011.21 1011.09 1010.99 1010.89 1010.79 1010.72 1010.66
1022.50 1022.59 1022.64 1022.64 1022.58 1022.45 1022.23 1021.92 1021.51 1020.99 1020.37 1019.68 1018.92 1018.11 1017.30 1016.50 1015.75 1015.07 1014.49 1014.01 1013.66 1013.41 1013.26 1013.19 1013.16 1013.16 1013.15 1013.11 1013.04 1012.92 1012.77 1012.59 1012.39 1012.19 1012.01 1011.85 1011.71 1011.59 1011.48 1011.38 1011.28 1011.18 1011.07 1010.97
1022.87 1022.90 1022.90 1022.85 1022.75 1022.56 1022.29 1021.93 1021.48 1020.93 1020.30 1019.60 1018.85 1018.07 1017.30 1016.55 1015.86 1015.25 1014.74 1014.33 1014.03 1013.84 1013.72 1013.67 1013.65 1013.65 1013.63 1013.57 1013.48 1013.34 1013.16 1012.96 1012.75 1012.56 1012.38 1012.23 1012.11 1012.01 1011.93 1011.85 1011.76 1011.66 1011.54 1011.40
1022.98 1022.95 1022.90 1022.80 1022.64 1022.41 1022.10 1021.71 1021.23 1020.67 1020.04 1019.35 1018.62 1017.88 1017.16 1016.47 1015.84 1015.29 1014.83 1014.47 1014.21 1014.05 1013.95 1013.91 1013.90 1013.89 1013.87 1013.81 1013.72 1013.58 1013.41 1013.22 1013.04 1012.86 1012.72 1012.60 1012.52 1012.46 1012.41 1012.36 1012.29 1012.19 1012.05 1011.89
1022.80 1022.72 1022.62 1022.48 1022.29 1022.04 1021.72 1021.31 1020.83 1020.28 1019.67 1019.01 1018.32 1017.63 1016.95 1016.31 1015.73 1015.23 1014.80 1014.47 1014.23 1014.08 1013.98 1013.94 1013.93 1013.92 1013.90 1013.86 1013.78 1013.67 1013.54 1013.39 1013.25 1013.12 1013.02 1012.95 1012.91 1012.88 1012.86 1012.84 1012.78 1012.68 1012.54 1012.35
1022.35 1022.24 1022.12 1021.97 1021.77 1021.53 1021.21 1020.83 1020.37 1019.86 1019.28 1018.67 1018.03 1017.38 1016.76 1016.16 1015.62 1015.14 1014.73 1014.40 1014.16 1013.98 1013.88 1013.82 1013.79 1013.78 1013.77 1013.75 1013.71 1013.65 1013.57 1013.48 1013.40 1013.33 1013.28 1013.25 1013.25 1013.25 1013.26 1013.24 1013.19 1013.10 1012.94 1012.73
1021.69 1021.58 1021.47 1021.34 1021.18 1020.96 1020.69 1020.35 1019.94 1019.48 1018.96 1018.40 1017.82 1017.23 1016.64 1016.08 1015.56 1015.09 1014.68 1014.33 1014.05 1013.84 1013.70 1013.61 1013.56 1013.54 1013.54 1013.54 1013.55 1013.54 1013.53 1013.51 1013.50 1013.49 1013.49 1013.50 1013.53 1013.55 1013.56 1013.55 1013.50 1013.39 1013.23 1013.01
1020.91 1020.83 1020.76 1020.68 1020.58 1020.43 1020.22 1019.95 1019.61 1019.21 1018.75 1018.26 1017.73 1017.19 1016.64 1016.11 1015.60 1015.12 1014.69 1014.30 1013.98 1013.71 1013.51 1013.37 1013.29 1013.25 1013.25 1013.28 1013.33 1013.38 1013.44 1013.49 1013.54 1013.59 1013.64 1013.68 1013.72 1013.75 1013.76 1013.74 1013.68 1013.57 1013.41 1013.18
1020.10 1020.08 1020.08 1020.08 1020.05 1019.98 1019.85 1019.65 1019.38 1019.05 1018.66 1018.22 1017.75 1017.25 1016.74 1016.23 1015.72 1015.23 1014.76 1014.33 1013.94 1013.61 1013.35 1013.15 1013.02 1012.96 1012.95 1013.00 1013.08 1013.18 1013.30 1013.42 1013.53 1013.63 1013.72 1013.79 1013.84 1013.87 1013.87 1013.84 1013.77 1013.66 1013.50 1013.28
1019.34 1019.39 1019.48 1019.56 1019.62 1019.63 1019.58 1019.45 1019.24 1018.97 1018.64 1018.25 1017.83 1017.37 1016.89 1016.40 1015.89 1015.38 1014.88 1014.40 1013.95 1013.56 1013.22 1012.95 1012.77 1012.67 1012.65 1012.70 1012.80 1012.95 1013.12 1013.30 1013.46 1013.62 1013.74 1013.83 1013.90 1013.92 1013.92 1013.88 1013.81 1013.70 1013.55 1013.36
1018.66 1018.80 1018.98 1019.15 1019.30 1019.38 1019.39 1019.32 1019.16 1018.94 1018.64 1018.30 1017.91 1017.49 1017.04 1016.56 1016.06 1015.54 1015.01 1014.49 1013.99 1013.53 1013.12 1012.79 1012.55 1012.40 1012.36 1012.40 1012.52 1012.69 1012.91 1013.13 1013.35 1013.55 1013.71 1013.83 1013.91 1013.94 1013.94 1013.90 1013.83 1013.73 1013.61 1013.46
1018.08 1018.31 1018.58 1018.84 1019.05 1019.20 1019.25 1019.22 1019.09 1018.89 1018.63 1018.31 1017.95 1017.56 1017.13 1016.67 1016.18 1015.66 1015.12 1014.57 1014.03 1013.51 1013.05 1012.66 1012.36 1012.17 1012.09 1012.12 1012.24 1012.44 1012.68 1012.95 1013.21 1013.45 1013.65 1013.80 1013.90 1013.95 1013.96 1013.93 1013.88 1013.80 1013.71 1013.60
1017.58 1017.91 1018.26 1018.60 1018.87 1019.05 1019.13 1019.11 1019.00 1018.81 1018.55 1018.25 1017.91 1017.55 1017.15 1016.71 1016.25 1015.74 1015.20 1014.64 1014.07 1013.52 1013.01 1012.57 1012.22 1011.98 1011.87 1011.88 1011.99 1012.20 1012.47 1012.76 1013.07 1013.35 1013.59 1013.78 1013.91 1013.99 1014.01 1014.01 1013.97 1013.93 1013.87 1013.81
1017.15 1017.57 1018.00 1018.39 1018.70 1018.90 1018.99 1018.98 1018.86 1018.67 1018.42 1018.13 1017.81 1017.46 1017.10 1016.70 1016.26 1015.78 1015.26 1014.70 1014.12 1013.54 1013.00 1012.52 1012.13 1011.86 1011.71 1011.69 1011.80 1012.01 1012.29 1012.62 1012.96 1013.28 1013.56 1013.79 1013.95 1014.05 1014.11 1014.12 1014.12 1014.10 1014.08 1014.06
1016.75 1017.26 1017.76 1018.19 1018.53 1018.74 1018.83 1018.81 1018.68 1018.49 1018.24 1017.96 1017.66 1017.34 1017.01 1016.65 1016.25 1015.80 1015.30 1014.76 1014.18 1013.60 1013.03 1012.53 1012.11 1011.80 1011.62 1011.59 1011.68 1011.89 1012.18 1012.53 1012.90 1013.25 1013.57 1013.83 1014.02 1014.15 1014.23 1014.27 1014.28 1014.29 1014.30 1014.32
1016.38 1016.96 1017.51 1017.98 1018.33 1018.55 1018.64 1018.60 1018.48 1018.28 1018.04 1017.77 1017.49 1017.21 1016.91 1016.59 1016.23 1015.82 1015.35 1014.83 1014.26 1013.67 1013.10 1012.58 1012.13 1011.80 1011.60 1011.55 1011.63 1011.83 1012.13 1012.49 1012.88 1013.25 1013.60 1013.88 1014.10 1014.26 1014.36 1014.42 1014.44 1014.47 1014.50 1014.55
1016.03 1016.66 1017.24 1017.73 1018.09 1018.31 1018.40 1018.37 1018.24 1018.06 1017.83 1017.59 1017.34 1017.09 1016.83 1016.55 1016.22 1015.84 1015.40 1014.89 1014.34 1013.76 1013.18 1012.65 1012.19 1011.84 1011.62 1011.55 1011.62 1011.82 1012.11 1012.48 1012.87 1013.27 1013.63 1013.93 1014.17 1014.34 1014.46 1014.52 1014.56 1014.60 1014.64 1014.71
1015.69 1016.35 1016.95 1017.44 1017.81 1018.03 1018.12 1018.10 1017.99 1017.82 1017.62 1017.42 1017.20 1016.99 1016.76 1016.51 1016.22 1015.86 1015.43 1014.94 1014.39 1013.82 1013.24 1012.70 1012.23 1011.87 1011.64 1011.56 1011.62 1011.81 1012.10 1012.46 1012.86 1013.26 1013.63 1013.95 1014.19 1014.37 1014.49 1014.57 1014.62 1014.67 1014.72 1014.81
1015.36 1016.03 1016.62 1017.10 1017.46 1017.68 1017.78 1017.78 1017.70 1017.56 1017.41 1017.24 1017.06 1016.88 1016.69 1016.46 1016.18 1015.83 1015.42 1014.93 1014.38 1013.80 1013.23 1012.68 1012.21 1011.85 1011.61 1011.53 1011.58 1011.77 1012.05 1012.41 1012.81 1013.21 1013.58 1013.90 1014.15 1014.34 1014.46 1014.55 1014.61 1014.67 1014.74 1014.85
1015.04 1015.68 1016.24 1016.70 1017.04 1017.26 1017.38 1017.40 1017.35 1017.26 1017.15 1017.03 1016.89 1016.75 1016.57 1016.36 1016.08 1015.74 1015.32 1014.83 1014.28 1013.70 1013.12 1012.58 1012.11 1011.75 1011.52 1011.44 1011.49 1011.67 1011.96 1012.31 1012.70 1013.10 1013.46 1013.78 1014.04 1014.23 1014.36 1014.46 1014.54 1014.61 1014.72 1014.85
1014.71 1015.29 1015.81 1016.23 1016.55 1016.77 1016.89 1016.95 1016.94 1016.91 1016.84 1016.76 1016.67 1016.55 1016.39 1016.18 1015.90 1015.55 1015.12 1014.62 1014.06 1013.48 1012.91 1012.38 1011.92 1011.58 1011.36 1011.28 1011.34 1011.52 1011.80 1012.15 1012.54 1012.93 1013.29 1013.61 1013.87 1014.07 1014.22 1014.33 1014.43 1014.54 1014.67 1014.84
1014.35 1014.86 1015.31 1015.68 1015.97 1016.19 1016.33 1016.42 1016.46 1016.47 1016.46 1016.42 1016.36 1016.27 1016.12 1015.91 1015.63 1015.27 1014.82 1014.32 1013.76 1013.18 1012.62 1012.11 1011.67 1011.34 1011.14 1011.08 1011.15 1011.33 1011.62 1011.96 1012.34 1012.72 1013.08 1013.40 1013.66 1013.87 1014.04 1014.18 1014.31 1014.45 1014.62 1014.83
1013.92 1014.34 1014.73 1015.05 1015.32 1015.53 1015.69 1015.82 1015.90 1015.97 1016.00 1016.01 1015.98 1015.91 1015.77 1015.56 1015.28 1014.91 1014.46 1013.96 1013.41 1012.85 1012.30 1011.81 1011.40 1011.10 1010.93 1010.88 1010.96 1011.15 1011.42 1011.76 1012.13 1012.50 1012.85 1013.17 1013.44 1013.66 1013.85 1014.02 1014.19 1014.37 1014.58 1014.83
Thickness
5569 5570 5569 5567 5574 5586 5592 5595 5594 5596 5599 5600 5606 5614 5625 5639 5655 5670 5680 5685 5690 5694 5698 5703 5708 5712 5712 5707 5704 5701 5697 5692 5689 5687 5686 5683 5681 5678 5675 5673 5672 5671 5669 5667
5572 5575 5575 5570 5571 5577 5584 5589 5593 5595 5597 5602 5608 5616 5625 5635 5647 5657 5666 5673 5679 5684 5688 5691 5694 5697 5699 5697 5696 5694 5690 5688 5687 5685 5682 5680 5677 5674 5672 5672 5670 5667 5665 5663
5566 5579 5582 5568 5566 5571 5578 5583 5586 5586 5589 5600 5607 5613 5618 5626 5636 5646 5655 5662 5668 5671 5673 5675 5676 5681 5684 5685 5685 5684 5681 5681 5681 5681 5678 5676 5674 5672 5669 5667 5665 5661 5660 5658
5571 5580 5569 5567 5576 5578 5581 5584 5584 5587 5593 5598 5603 5611 5621 5626 5631 5639 5648 5654 5658 5661 5664 5665 5666 5668 5670 5671 5672 5672 5671 5671 5672 5671 5670 5668 5667 5664 5662 5661 5658 5656 5654 5654
5577 5575 5575 5579 5585 5586 5584 5586 5588 5590 5596 5603 5608 5621 5628 5634 5634 5639 5646 5652 5655 5659 5661 5662 5663 5663 5663 5663 5663 5662 5662 5661 5661 5660 5659 5657 5655 5654 5653 5651 5649 5648 5647 5647
5583 5581 5574 5580 5591 5595 5590 5589 5592 5594 5597 5603 5607 5613 5620 5633 5638 5644 5650 5654 5656 5659 5661 5662 5662 5663 5661 5658 5657 5655 5655 5653 5652 5651 5649 5646 5645 5644 5642 5641 5640 5640 5639 5638
5581 5583 5584 5591 5595 5596 5587 5585 5594 5597 5601 5604 5605 5609 5622 5634 5643 5649 5654 5657 5658 5658 5658 5658 5659 5658 5655 5653 5651 5650 5650 5648 5645 5643 5641 5639 5637 5636 5634 5632 5631 5630 5629 5629
5584 5581 5581 5598 5597 5591 5591 5597 5600 5603 5607 5611 5615 5622 5631 5640 5646 5651 5654 5658 5658 5656 5655 5655 5655 5653 5650 5648 5648 5647 5645 5642 5640 5639 5637 5634 5631 5629 5628 5625 5623 5621 5620 5620
5595 5592 5600 5603 5601 5602 5603 5603 5606 5609 5613 5617 5621 5626 5633 5640 5646 5651 5655 5656 5656 5655 5654 5653 5652 5651 5648 5646 5645 5643 5639 5637 5635 5634 5631 5628 5625 5623 5620 5617 5615 5613 5611 5610
5605 5607 5608 5606 5606 5607 5607 5608 5611 5615 5618 5622 5623 5629 5635 5640 5646 5652 5655 5655 5655 5653 5651 5650 5650 5648 5646 5644 5642 5638 5634 5632 5630 5628 5625 5622 5619 5616 5612 5609 5607 5605 5604 5602
5610 5611 5611 5610 5609 5610 5611 5612 5614 5618 5622 5626 5629 5634 5639 5643 5648 5652 5654 5655 5655 5653 5651 5650 5649 5647 5645 5642 5639 5634 5630 5627 5625 5622 5619 5617 5613 5608 5606 5603 5600 5599 5597 5596
5613 5615 5609 5609 5612 5614 5614 5615 5618 5620 5624 5630 5634 5637 5641 5645 5649 5651 5652 5654 5653 5652 5652 5651 5649 5646 5643 5641 5637 5632 5627 5623 5620 5618 5616 5613 5609 5605 5601 5598 5596 5594 5593 5592
5631 5625 5618 5617 5617 5617 5617 5619 5622 5624 5626 5629 5634 5638 5641 5643 5648 5650 5652 5653 5653 5652 5652 5652 5650 5647 5645 5642 5639 5634 5628 5624 5620 5617 5614 5610 5607 5604 5600 5596 5594 5592 5591 5590
5641 5632 5624 5622 5618 5619 5620 5622 5623 5625 5627 5630 5633 5637 5641 5643 5646 5649 5651 5654 5656 5657 5656 5655 5653 5651 5650 5646 5641 5637 5631 5627 5622 5618 5614 5610 5607 5604 5601 5597 5594 5591 5590 5590
5644 5636 5629 5625 5620 5618 5619 5620 5621 5622 5625 5628 5632 5635 5639 5642 5644 5648 5651 5655 5658 5660 5660 5659 5657 5656 5655 5650 5645 5640 5635 5630 5625 5621 5616 5612 5609 5605 5601 5598 5595 5592 5590 5590
5647 5640 5633 5627 5621 5617 5615 5616 5616 5619 5622 5626 5629 5632 5636 5639 5643 5648 5652 5655 5656 5658 5661 5663 5662 5662 5660 5655 5649 5644 5639 5636 5630 5625 5620 5616 5611 5607 5603 5599 5596 5594 5591 5590
5649 5640 5633 5627 5622 5618 5614 5613 5614 5616 5619 5622 5626 5630 5634 5638 5642 5647 5651 5655 5657 5660 5663 5665 5666 5667 5665 5660 5653 5647 5643 5640 5636 5630 5624 5620 5615 5611 5607 5603 5600 5597 5595 5594
5659 5649 5639 5633 5624 5618 5615 5614 5613 5615 5618 5621 5625 5628 5632 5635 5639 5644 5649 5654 5657 5661 5664 5667 5669 5671 5669 5664 5658 5651 5646 5642 5638 5633 5629 5624 5620 5616 5612 5608 5605 5602 5599 5597
5660 5651 5643 5637 5631 5623 5618 5615 5614 5615 5618 5621 5623 5625 5629 5633 5637 5642 5647 5650 5653 5656 5661 5667 5672 5674 5670 5667 5661 5655 5649 5645 5640 5636 5632 5629 5624 5620 5616 5612 5609 5606 5603 5600
5661 5654 5647 5640 5635 5628 5622 5619 5617 5615 5617 5619 5621 5623 5627 5631 5635 5640 5644 5647 5649 5652 5658 5664 5668 5670 5669 5666 5663 5658 5653 5648 5643 5638 5635 5632 5628 5623 5619 5616 5612 5609 5607 5604
5661 5655 5649 5642 5636 5632 5627 5623 5618 5616 5615 5616 5618 5621 5624 5628 5633 5637 5641 5644 5650 5654 5658 5662 5665 5667 5667 5666 5664 5660 5655 5650 5645 5641 5638 5634 5631 5626 5623 5619 5616 5613 5610 5608
5660 5655 5650 5643 5637 5632 5629 5624 5620 5618 5616 5615 5617 5619 5622 5625 5630 5634 5638 5642 5648 5654 5658 5661 5664 5667 5668 5666 5663 5660 5657 5652 5648 5644 5641 5638 5634 5629 5626 5622 5619 5616 5613 5611
5658 5654 5649 5643 5638 5634 5630 5627 5623 5620 5617 5616 5616 5617 5619 5622 5625 5629 5635 5643 5648 5654 5658 5662 5666 5669 5670 5667 5664 5661 5658 5655 5651 5647 5645 5642 5638 5634 5629 5625 5622 5619 5616 5613
5655 5651 5647 5643 5638 5633 5630 5628 5625 5621 5619 5617 5616 5616 5617 5618 5622 5628 5632 5640 5647 5653 5658 5663 5667 5671 5671 5666 5664 5662 5659 5656 5653 5650 5648 5644 5640 5636 5632 5628 5624 5621 5619 5616
5653 5648 5644 5640 5635 5632 5630 5629 5626 5623 5620 5617 5616 5615 5615 5615 5617 5624 5630 5637 5645 5652 5658 5664 5669 5671 5670 5667 5664 5662 5660 5657 5655 5653 5649 5645 5641 5637 5633 5630 5627 5624 5620 5617
5649 5645 5642 5639 5636 5632 5628 5626 5624 5622 5618 5615 5614 5614 5614 5614 5616 5619 5626 5633 5641 5649 5656 5662 5666 5669 5668 5666 5664 5662 5660 5658 5655 5654 5651 5647 5643 5638 5634 5631 5629 5625 5621 5617
5643 5641 5638 5635 5632 5630 5627 5624 5623 5622 5620 5617 5614 5614 5613 5613 5614 5616 5621 5628 5636 5644 5652 5658 5662 5665 5665 5665 5664 5662 5660 5658 5655 5653 5651 5648 5644 5640 5636 5633 5629 5626 5622 5618